Flag for Belgium Weather past 2 weeks in Namur, Belgium

Now
36 °F

Fog.


Feels Like: 31 °F
Forecast: 29 / 37 °F
Wind: 6 mph from West

Location: Charleroi / Gosselies

Current Time: Dec 26, 2014 at 7:03:37 AM

Latest Report: Dec 26, 2014 at 6:20 AM


Visibility: 2 mi

Pressure: 30.42 "Hg

Humidity: 100%

Dew point: 36 °F

Location of NamurLocation

Historic Weather in Namur — Graph

°F

Namur temperature yesterday

Maximum temperature yesterday: 43 °F (at 12:50 PM)
Minimum temperature yesterday: 37 °F (at 1:20 AM)
Average temperature yesterday: 39 °F

Past Weeks' High & Low Weather Summary

 TemperatureHumidityPressure
High52 °F (Dec 18, 5:50 AM)100% (Dec 12, 12:50 PM)30.45 "Hg (Dec 12, 12:50 PM)
Low32 °F (Dec 15, 12:20 AM)71% (Dec 20, 3:20 PM)29.45 "Hg (Dec 12, 2:20 PM)
Average43 °F90%30.03 "Hg
* Reported Dec 11 5:20 AM — Dec 26 5:50 AM, Namur, Weather by CustomWeather, © 2014

Note: Actual official high and low records may vary slightly from our data, if they occured in-between our weather recording intervals... More about our weather records

Advertising

Namur weather history for previous 24 hours

 ConditionsComfort  
Time TempWeatherWind HumidityBarometerVisibility
5:50 AM
Dec 26
37 °FFog.7 mph93%30.42 "Hg2 mi
5:20 AM36 °FFog.7 mph100%30.42 "Hg1 mi
4:50 AM36 °FFog.7 mph100%30.42 "Hg2 mi
3:50 AM37 °FFog.3 mph100%30.42 "Hg2 mi
3:20 AM37 °FFog.6 mph93%30.42 "Hg2 mi
2:50 AM37 °FPartly cloudy.5 mph93%30.42 "Hg4 mi
2:20 AM37 °FPassing clouds.5 mph100%30.42 "Hg4 mi
1:50 AM37 °FPartly cloudy.6 mph100%30.42 "Hg4 mi
1:20 AM37 °FSprinkles. Passing clouds.7 mph100%30.42 "Hg3 mi
12:50 AM37 °FSprinkles. Passing clouds.6 mph100%30.42 "Hg3 mi
12:20 AM37 °FFog.6 mph100%30.42 "Hg3 mi
11:50 PM
Dec 25
37 °FFog.6 mph100%30.42 "Hg3 mi
11:20 PM37 °FSprinkles. Partly cloudy.5 mph100%30.39 "Hg4 mi
10:50 PM39 °FSprinkles. Partly cloudy.5 mph93%30.39 "Hg3 mi
10:20 PM39 °FSprinkles. Partly cloudy.7 mph93%30.39 "Hg3 mi
9:50 PM37 °FPassing clouds.6 mph100%30.39 "HgN/A
9:20 PM37 °FSprinkles. Passing clouds.7 mph100%30.39 "Hg4 mi
8:50 PM39 °FPassing clouds.6 mph93%30.39 "Hg6 mi
8:20 PM39 °FSprinkles. Passing clouds.8 mph93%30.39 "Hg3 mi
7:50 PM39 °FSprinkles. Passing clouds.7 mph93%30.36 "Hg4 mi
7:20 PM39 °FPassing clouds.8 mph93%30.36 "HgN/A
6:50 PM39 °FPassing clouds.9 mph93%30.36 "HgN/A
6:20 PM39 °FPassing clouds.7 mph93%30.36 "HgN/A
5:50 PM41 °FPassing clouds.8 mph87%30.36 "HgN/A
5:20 PM41 °FPassing clouds.8 mph87%30.33 "HgN/A
4:50 PM41 °FPassing clouds.7 mph87%30.33 "HgN/A
4:20 PM41 °FScattered clouds.9 mph81%30.33 "HgN/A
3:50 PM41 °FScattered clouds.9 mph87%30.33 "HgN/A
3:20 PM43 °FScattered clouds.9 mph81%30.33 "HgN/A
2:50 PM41 °FScattered clouds.10 mph87%30.30 "HgN/A
2:20 PM43 °FScattered clouds.9 mph81%30.33 "HgN/A
1:50 PM43 °FScattered clouds.10 mph81%30.33 "HgN/A
1:20 PM43 °FScattered clouds.10 mph81%30.33 "HgN/A
12:50 PM43 °FPassing clouds.12 mph81%30.33 "HgN/A
12:20 PM41 °FPassing clouds.8 mph87%30.33 "HgN/A
11:50 AM41 °FPassing clouds.10 mph87%30.30 "HgN/A
11:20 AM39 °FPassing clouds.10 mph87%30.30 "HgN/A
10:50 AM39 °FPassing clouds.12 mph87%30.30 "HgN/A
10:20 AM37 °FPassing clouds.12 mph93%30.30 "HgN/A
9:50 AM37 °FPassing clouds.10 mph93%30.30 "HgN/A
9:20 AM37 °FSunny.8 mph87%30.27 "Hg10 mi
8:50 AM37 °FSunny.9 mph87%30.27 "Hg10 mi
8:20 AM37 °FClear.9 mph87%30.27 "Hg10 mi
7:50 AM37 °FClear.9 mph87%30.27 "Hg10 mi
7:20 AM37 °FClear.9 mph87%30.24 "Hg10 mi
Weather by CustomWeather, © 2014

See weather overviewHow to use our weather pages